SQUAM R @ ASHLAND: From 08/05/2019 00:00 to 08/22/2019 00:00

Date STAGE [FT] FLOW [CFS] PRECIPITATION INCREMENT [IN] AIR TEMPERATURE [DEGF] PRECIPITATION TOTAL [IN]
08/19/2019 19:00 10.29 55.8 0.00 77.9 --
08/19/2019 18:00 10.29 55.8 0.00 78.8 --
08/19/2019 17:00 10.29 55.8 0.01 76.4 --
08/19/2019 16:00 10.29 55.8 0.00 83.2 --
08/19/2019 15:00 10.29 55.8 0.00 83.5 --
08/19/2019 14:00 10.29 55.8 0.00 83.2 --
08/19/2019 13:00 10.29 55.8 0.00 79.7 --
08/19/2019 12:00 10.29 55.8 0.00 77.2 --
08/19/2019 11:00 10.28 54.4 0.00 73.3 --
08/19/2019 10:00 10.29 55.8 0.00 70.8 --
08/19/2019 09:00 10.29 55.8 0.00 69.3 --
08/19/2019 08:00 10.28 54.4 0.00 68.1 --
08/19/2019 07:00 10.28 54.4 0.00 67.8 --
08/19/2019 06:00 10.29 55.8 0.00 68.6 --
08/19/2019 05:00 10.28 54.4 0.00 69.2 --
08/19/2019 04:00 10.28 54.4 0.00 69.1 --
08/19/2019 03:00 10.28 54.4 0.00 69.2 --
08/19/2019 02:00 10.29 55.8 0.00 69.3 --
08/19/2019 01:00 10.29 55.8 0.01 69.7 --
08/19/2019 00:00 10.29 55.8 0.00 70.8 --
08/18/2019 23:00 10.29 55.8 0.00 70.4 --
08/18/2019 22:00 10.29 55.8 0.00 70.4 --
08/18/2019 21:00 10.29 55.8 0.00 72.1 --
08/18/2019 20:00 10.29 55.8 0.00 73.2 --
08/18/2019 19:00 10.29 55.8 0.00 76.1 --
08/18/2019 18:00 10.29 55.8 0.00 81.4 --
08/18/2019 17:00 10.29 55.8 0.00 81.6 --
08/18/2019 16:00 10.29 55.8 0.00 80.0 --
08/18/2019 15:00 10.29 55.8 0.00 79.5 --
08/18/2019 14:00 10.29 55.8 0.00 76.8 --
08/18/2019 13:00 10.29 55.8 0.00 73.2 --
08/18/2019 12:00 10.29 55.8 0.00 70.5 --
08/18/2019 11:00 10.29 55.8 0.00 68.0 --
08/18/2019 10:00 10.29 55.8 0.00 65.7 --
08/18/2019 09:00 10.29 55.8 0.00 64.1 --
08/18/2019 08:00 10.29 55.8 0.00 63.6 --
08/18/2019 07:00 10.29 55.8 0.01 63.6 --
08/18/2019 06:00 10.29 55.8 0.00 62.3 --
08/18/2019 05:00 10.29 55.8 0.00 64.0 --
08/18/2019 04:00 10.29 55.8 0.00 64.9 --
08/18/2019 03:00 10.29 55.8 0.00 65.0 --
08/18/2019 02:00 10.29 55.8 0.00 65.4 --
08/18/2019 01:00 10.29 55.8 0.00 65.0 --
08/18/2019 00:00 10.29 55.8 0.01 65.4 0.01
08/17/2019 23:00 10.29 55.8 0.12 66.4 --
08/17/2019 22:00 10.29 55.8 0.31 68.3 --
08/17/2019 21:00 10.29 55.8 0.00 69.6 --
08/17/2019 20:00 10.29 55.8 0.00 70.1 --
08/17/2019 19:00 10.29 55.8 0.00 70.6 --
08/17/2019 18:00 10.28 54.4 0.00 71.0 --
08/17/2019 17:00 10.29 55.8 0.00 70.5 --
08/17/2019 16:00 10.29 55.8 0.00 70.1 --
08/17/2019 15:00 10.29 55.8 0.00 69.2 --
08/17/2019 14:00 10.29 55.8 0.00 68.1 --
08/17/2019 13:00 10.29 55.8 0.00 68.0 --
08/17/2019 12:00 10.29 55.8 0.00 67.2 --
08/17/2019 11:00 10.29 55.8 0.00 65.7 --
08/17/2019 10:00 10.29 55.8 0.00 65.6 --
08/17/2019 09:00 10.29 55.8 0.00 65.9 --
08/17/2019 08:00 10.29 55.8 0.00 65.3 --
08/17/2019 07:00 10.29 55.8 0.00 65.0 --
08/17/2019 06:00 10.29 55.8 0.00 65.0 --
08/17/2019 05:00 10.29 55.8 0.00 64.9 --
08/17/2019 04:00 10.29 55.8 0.00 65.0 --
08/17/2019 03:00 10.29 55.8 0.00 65.3 --
08/17/2019 02:00 10.29 55.8 0.00 65.8 --
08/17/2019 01:00 10.29 55.8 0.00 66.3 --
08/17/2019 00:00 10.29 55.8 0.00 66.8 0.44
08/16/2019 23:00 10.29 55.8 0.00 67.8 --
08/16/2019 22:00 10.29 55.8 0.00 68.3 --
08/16/2019 21:00 10.29 55.8 0.00 70.5 --
08/16/2019 20:00 10.29 55.8 0.00 72.8 --
08/16/2019 19:00 10.29 55.8 0.00 74.3 --
08/16/2019 18:00 10.29 55.8 0.00 75.2 --
08/16/2019 17:00 10.29 55.8 0.00 75.2 --
08/16/2019 16:00 10.29 55.8 0.00 73.0 --
08/16/2019 15:00 10.29 55.8 0.00 72.4 --
08/16/2019 14:00 10.29 55.8 0.00 72.2 --
08/16/2019 13:00 10.29 55.8 0.01 67.8 --
08/16/2019 12:00 10.29 55.8 0.00 67.1 --
08/16/2019 11:00 10.29 55.8 0.00 65.7 --
08/16/2019 10:00 10.29 55.8 0.00 64.5 --
08/16/2019 09:00 10.29 55.8 0.00 63.2 --
08/16/2019 08:00 10.29 55.8 0.00 62.3 --
08/16/2019 07:00 10.29 55.8 0.04 62.0 --
08/16/2019 06:00 10.29 55.8 0.03 62.3 --
08/16/2019 05:00 10.29 55.8 0.11 62.8 --
08/16/2019 04:00 10.28 54.4 0.00 64.2 --
08/16/2019 03:00 10.28 54.4 0.00 65.7 --
08/16/2019 02:00 10.28 54.4 0.00 65.5 --
08/16/2019 01:00 10.29 55.8 0.00 66.0 --
08/16/2019 00:00 10.29 55.8 0.00 66.6 0.19
08/15/2019 23:00 10.28 54.4 0.00 66.5 --
08/15/2019 22:00 10.29 55.8 0.00 67.2 --
08/15/2019 21:00 10.29 55.8 0.00 70.8 --
08/15/2019 20:00 10.29 55.8 0.00 73.1 --
08/15/2019 19:00 10.29 55.8 0.00 74.1 --
08/15/2019 18:00 10.29 55.8 0.00 75.6 --
08/15/2019 17:00 10.29 55.8 0.00 75.0 --
08/15/2019 16:00 10.29 55.8 0.00 75.5 --
08/15/2019 15:00 10.29 55.8 0.00 73.3 --
08/15/2019 14:00 10.29 55.8 0.00 73.7 --
08/15/2019 13:00 10.29 55.8 0.00 72.6 --
08/15/2019 12:00 10.29 55.8 0.00 70.5 --
08/15/2019 11:00 10.29 55.8 0.00 67.3 --
08/15/2019 10:00 10.29 55.8 0.00 63.9 --
08/15/2019 09:00 10.29 55.8 0.00 59.6 --
08/15/2019 08:00 10.29 55.8 0.00 57.0 --
08/15/2019 07:00 10.29 55.8 0.00 55.7 --
08/15/2019 06:00 10.29 55.8 0.00 56.6 --
08/15/2019 05:00 10.28 54.4 0.00 57.1 --
08/15/2019 04:00 10.29 55.8 0.00 57.5 --
08/15/2019 03:00 10.29 55.8 0.00 59.0 --
08/15/2019 02:00 10.28 54.4 0.00 59.3 --
08/15/2019 01:00 10.28 54.4 0.00 60.0 --
08/15/2019 00:00 10.28 54.4 0.00 61.1 0.00
08/14/2019 23:00 10.28 54.4 0.00 62.7 --
08/14/2019 22:00 10.28 54.4 0.00 65.4 --
08/14/2019 21:00 10.28 54.4 0.00 67.3 --
08/14/2019 20:00 10.29 55.8 0.00 72.0 --
08/14/2019 19:00 10.29 55.8 0.00 73.6 --
08/14/2019 18:00 10.29 55.8 0.00 77.5 --
08/14/2019 17:00 10.29 55.8 0.00 77.8 --
08/14/2019 16:00 10.29 55.8 0.00 76.2 --
08/14/2019 15:00 10.29 55.8 0.00 75.9 --
08/14/2019 14:00 10.29 55.8 0.00 74.5 --
08/14/2019 13:00 10.29 55.8 0.00 72.6 --
08/14/2019 12:00 10.28 54.4 0.00 69.6 --
08/14/2019 11:00 10.29 55.8 0.00 66.4 --
08/14/2019 10:00 10.28 54.4 0.00 62.3 --
08/14/2019 09:00 10.29 55.8 0.00 59.2 --
08/14/2019 08:00 10.29 55.8 0.00 56.9 --
08/14/2019 07:00 10.29 55.8 0.00 56.4 --
08/14/2019 06:00 10.29 55.8 0.00 57.2 --
08/14/2019 05:00 10.29 55.8 0.00 58.0 --
08/14/2019 04:00 10.29 55.8 0.00 59.4 --
08/14/2019 03:00 10.29 55.8 0.00 60.4 --
08/14/2019 02:00 10.29 55.8 0.01 61.0 --
08/14/2019 01:00 10.29 55.8 0.00 62.2 --
08/14/2019 00:00 10.28 54.4 0.00 63.3 0.01
08/13/2019 23:00 10.29 55.8 0.00 65.1 --
08/13/2019 22:00 10.29 55.8 0.00 67.3 --
08/13/2019 21:00 10.29 55.8 0.00 69.0 --
08/13/2019 20:00 10.29 55.8 0.00 69.5 --
08/13/2019 19:00 10.29 55.8 0.00 69.4 --
08/13/2019 18:00 10.29 55.8 0.25 68.8 --
08/13/2019 17:00 10.29 55.8 0.10 72.1 --
08/13/2019 16:00 10.29 55.8 0.00 79.2 --
08/13/2019 15:00 10.29 55.8 0.00 76.5 --
08/13/2019 14:00 10.29 55.8 0.00 75.3 --
08/13/2019 13:00 10.29 55.8 0.00 74.0 --
08/13/2019 12:00 10.29 55.8 0.00 72.0 --
08/13/2019 11:00 10.28 54.4 0.00 68.1 --
08/13/2019 10:00 10.29 55.8 0.02 65.8 --
08/13/2019 09:00 10.28 54.4 0.00 64.4 --
08/13/2019 08:00 10.29 55.8 0.00 64.1 --
08/13/2019 07:00 10.28 54.4 0.00 63.5 --
08/13/2019 06:00 10.29 55.8 0.00 63.0 --
08/13/2019 05:00 10.29 55.8 0.00 62.5 --
08/13/2019 04:00 10.29 55.8 0.00 62.1 --
08/13/2019 03:00 10.29 55.8 0.00 62.0 --
08/13/2019 02:00 10.29 55.8 0.00 62.4 --
08/13/2019 01:00 10.29 55.8 0.00 63.3 --
08/13/2019 00:00 10.29 55.8 0.00 63.8 0.37
08/12/2019 23:00 10.29 55.8 0.00 64.9 --
08/12/2019 22:00 10.29 55.8 0.00 66.0 --
08/12/2019 21:00 10.29 55.8 0.00 69.4 --
08/12/2019 20:00 10.29 55.8 0.00 73.1 --
08/12/2019 19:00 10.29 55.8 0.00 75.3 --
08/12/2019 18:00 10.29 55.8 0.00 78.9 --
08/12/2019 17:00 10.29 55.8 0.00 78.6 --
08/12/2019 16:00 10.29 55.8 0.00 79.5 --
08/12/2019 15:00 10.29 55.8 0.00 79.9 --
08/12/2019 14:00 10.29 55.8 0.00 79.2 --
08/12/2019 13:00 10.29 55.8 0.00 76.6 --
08/12/2019 12:00 10.29 55.8 0.00 74.5 --
08/12/2019 11:00 10.29 55.8 0.00 73.9 --
08/12/2019 10:00 10.29 55.8 0.00 73.5 --
08/12/2019 09:00 10.29 55.8 0.00 73.2 --
08/12/2019 08:00 10.29 55.8 0.00 72.8 --
08/12/2019 07:00 10.28 54.4 0.00 72.5 --
08/12/2019 06:00 10.29 55.8 0.00 72.1 --
08/12/2019 05:00 10.29 55.8 0.00 71.8 --
08/12/2019 04:00 10.29 55.8 0.00 71.4 --
08/12/2019 03:00 10.29 55.8 0.00 71.1 --
08/12/2019 02:00 10.29 55.8 0.00 70.7 --
08/12/2019 01:00 10.29 55.8 0.00 70.4 --
08/12/2019 00:00 10.28 54.4 0.00 70.0 0.00
08/11/2019 23:00 10.29 55.8 0.00 69.7 --
08/11/2019 22:00 10.29 55.8 0.00 69.3 --
08/11/2019 21:00 10.29 55.8 0.00 69.0 --
08/11/2019 20:00 10.29 55.8 0.00 68.6 --
08/11/2019 19:00 10.29 55.8 0.00 68.3 --
08/11/2019 18:00 10.29 55.8 0.00 67.9 --
08/11/2019 17:00 10.29 55.8 0.00 71.9 --
08/11/2019 16:00 10.29 55.8 0.00 71.3 --
08/11/2019 15:00 10.29 55.8 0.00 72.0 --
08/11/2019 14:00 10.29 55.8 0.00 70.7 --
08/11/2019 13:00 10.29 55.8 0.00 67.9 --
08/11/2019 12:00 10.29 55.8 0.00 67.6 --
08/11/2019 11:00 10.29 55.8 0.00 64.6 --
08/11/2019 10:00 10.29 55.8 0.00 61.6 --
08/11/2019 09:00 10.29 55.8 0.00 55.5 --
08/11/2019 08:00 10.29 55.8 0.00 52.0 --
08/11/2019 07:00 10.29 55.8 0.00 51.3 --
08/11/2019 06:00 10.29 55.8 0.00 52.4 --
08/11/2019 05:00 10.29 55.8 0.00 52.6 --
08/11/2019 04:00 10.29 55.8 0.00 55.1 --
08/11/2019 03:00 10.29 55.8 0.00 52.8 --
08/11/2019 02:00 10.29 55.8 0.00 51.5 --
08/11/2019 01:00 10.29 55.8 0.00 51.9 --
08/11/2019 00:00 10.29 55.8 0.00 53.1 0.00
08/10/2019 23:00 10.29 55.8 0.00 52.9 --
08/10/2019 22:00 10.29 55.8 0.00 54.6 --
08/10/2019 21:00 10.29 55.8 0.00 57.1 --
08/10/2019 20:00 10.29 55.8 0.00 58.8 --
08/10/2019 19:00 10.29 55.8 0.01 61.7 --
08/10/2019 18:00 10.29 55.8 0.00 68.4 --
08/10/2019 17:00 10.29 55.8 0.00 69.6 --
08/10/2019 16:00 10.29 55.8 0.00 69.4 --
08/10/2019 15:00 10.29 55.8 0.00 66.9 --
08/10/2019 14:00 10.29 55.8 0.06 62.6 --
08/10/2019 13:00 10.29 55.8 0.00 66.0 --
08/10/2019 12:00 10.29 55.8 0.00 67.3 --
08/10/2019 11:00 10.29 55.8 0.00 67.0 --
08/10/2019 10:00 10.29 55.8 0.00 63.6 --
08/10/2019 09:00 10.29 55.8 0.00 58.5 --
08/10/2019 08:00 10.29 55.8 0.00 55.3 --
08/10/2019 07:00 10.29 55.8 0.00 54.0 --
08/10/2019 06:00 10.29 55.8 0.00 53.9 --
08/10/2019 05:00 10.29 55.8 0.00 54.6 --
08/10/2019 04:00 10.29 55.8 0.00 55.4 --
08/10/2019 03:00 10.29 55.8 0.00 56.2 --
08/10/2019 02:00 10.29 55.8 0.00 57.3 --
08/10/2019 01:00 10.29 55.8 0.00 59.4 --
08/10/2019 00:00 10.29 55.8 0.00 61.5 0.07
08/09/2019 23:00 10.29 55.8 0.00 63.6 --
08/09/2019 22:00 10.29 55.8 0.00 63.7 --
08/09/2019 21:00 10.29 55.8 0.00 66.8 --
08/09/2019 20:00 10.29 55.8 0.00 70.4 --
08/09/2019 19:00 10.29 55.8 0.00 73.8 --
08/09/2019 18:00 10.29 55.8 0.00 78.1 --
08/09/2019 17:00 10.29 55.8 0.00 78.6 --
08/09/2019 16:00 10.29 55.8 0.00 78.2 --
08/09/2019 15:00 10.29 55.8 0.00 77.6 --
08/09/2019 14:00 10.29 55.8 0.00 77.4 --
08/09/2019 13:00 10.29 55.8 0.00 74.1 --
08/09/2019 12:00 10.29 55.8 0.00 72.5 --
08/09/2019 11:00 10.29 55.8 0.00 71.3 --
08/09/2019 10:00 10.29 55.8 0.00 68.8 --
08/09/2019 09:00 10.29 55.8 0.00 64.4 --
08/09/2019 08:00 10.29 55.8 0.00 60.9 --
08/09/2019 07:00 10.29 55.8 0.00 59.6 --
08/09/2019 06:00 10.29 55.8 0.00 59.8 --
08/09/2019 05:00 10.29 55.8 0.00 60.6 --
08/09/2019 04:00 10.29 55.8 0.00 62.2 --
08/09/2019 03:00 10.29 55.8 0.00 66.2 --
08/09/2019 02:00 10.29 55.8 0.00 67.6 --
08/09/2019 01:00 10.29 55.8 0.00 67.0 --
08/09/2019 00:00 10.29 55.8 0.00 65.1 0.00
08/08/2019 23:00 10.29 55.8 0.00 65.7 --
08/08/2019 22:00 10.29 55.8 0.00 67.1 --
08/08/2019 21:00 10.29 55.8 0.00 70.5 --
08/08/2019 20:00 10.29 55.8 0.00 73.5 --
08/08/2019 19:00 10.29 55.8 0.00 76.4 --
08/08/2019 18:00 10.29 55.8 0.00 80.8 --
08/08/2019 17:00 10.29 55.8 0.00 81.3 --
08/08/2019 16:00 10.29 55.8 0.00 80.5 --
08/08/2019 15:00 10.29 55.8 0.00 77.8 --
08/08/2019 14:00 10.29 55.8 0.00 76.9 --
08/08/2019 13:00 10.29 55.8 0.00 74.8 --
08/08/2019 12:00 10.29 55.8 0.00 72.6 --
08/08/2019 11:00 10.29 55.8 0.00 69.8 --
08/08/2019 10:00 10.29 55.8 0.00 67.8 --
08/08/2019 09:00 10.29 55.8 0.00 67.5 --
08/08/2019 08:00 10.29 55.8 0.00 66.6 --
08/08/2019 07:00 10.29 55.8 0.00 66.2 --
08/08/2019 06:00 10.29 55.8 0.01 66.2 --
08/08/2019 05:00 10.29 55.8 0.00 66.3 --
08/08/2019 04:00 10.29 55.8 0.00 66.5 --
08/08/2019 03:00 10.29 55.8 0.00 66.5 --
08/08/2019 02:00 10.29 55.8 0.02 67.2 --
08/08/2019 01:00 10.29 55.8 0.00 68.1 --
08/08/2019 00:00 10.29 55.8 0.01 68.4 0.03
08/07/2019 23:00 10.29 55.8 0.02 68.6 --
08/07/2019 22:00 10.29 55.8 0.00 68.5 --
08/07/2019 21:00 10.29 55.8 0.00 68.5 --
08/07/2019 20:00 10.29 55.8 0.01 68.9 --
08/07/2019 19:00 10.29 55.8 0.03 68.3 --
08/07/2019 18:00 10.29 55.8 0.03 74.1 --
08/07/2019 17:00 10.29 55.8 0.00 80.0 --
08/07/2019 16:00 10.29 55.8 0.00 78.8 --
08/07/2019 15:00 10.29 55.8 0.00 77.1 --
08/07/2019 14:00 10.29 55.8 0.00 75.3 --
08/07/2019 13:00 10.29 55.8 0.00 74.9 --
08/07/2019 12:00 10.29 55.8 0.00 73.7 --
08/07/2019 11:00 10.29 55.8 0.00 71.7 --
08/07/2019 10:00 10.29 55.8 0.00 69.8 --
08/07/2019 09:00 10.29 55.8 0.00 67.8 --
08/07/2019 08:00 10.29 55.8 0.00 66.5 --
08/07/2019 07:00 10.29 55.8 0.00 65.5 --
08/07/2019 06:00 10.29 55.8 0.00 64.8 --
08/07/2019 05:00 10.29 55.8 0.00 64.4 --
08/07/2019 04:00 10.29 55.8 0.00 64.7 --
08/07/2019 03:00 10.29 55.8 0.00 65.2 --
08/07/2019 02:00 10.29 55.8 0.00 65.1 --
08/07/2019 01:00 10.29 55.8 0.00 66.3 --
08/07/2019 00:00 10.29 55.8 0.00 66.5 0.10
08/06/2019 23:00 10.29 55.8 0.00 67.6 --
08/06/2019 22:00 10.29 55.8 0.00 69.6 --
08/06/2019 21:00 10.29 55.8 0.00 72.6 --
08/06/2019 20:00 10.29 55.8 0.00 76.8 --
08/06/2019 19:00 10.29 55.8 0.00 78.5 --
08/06/2019 18:00 10.29 55.8 0.00 80.1 --
08/06/2019 17:00 10.29 55.8 0.00 80.5 --
08/06/2019 16:00 10.29 55.8 0.00 81.2 --
08/06/2019 15:00 10.29 55.8 0.00 81.3 --
08/06/2019 14:00 10.29 55.8 0.00 80.0 --
08/06/2019 13:00 10.29 55.8 0.00 76.3 --
08/06/2019 12:00 10.29 55.8 0.00 71.9 --
08/06/2019 11:00 10.29 55.8 0.00 66.8 --
08/06/2019 10:00 10.29 55.8 0.00 60.9 --
08/06/2019 09:00 10.29 55.8 0.00 55.4 --
08/06/2019 08:00 10.29 55.8 0.00 52.1 --
08/06/2019 07:00 10.29 55.8 0.00 50.5 --
08/06/2019 06:00 10.29 55.8 0.00 51.2 --
08/06/2019 05:00 10.29 55.8 0.00 52.3 --
08/06/2019 04:00 10.29 55.8 0.00 53.3 --
08/06/2019 03:00 10.29 55.8 0.00 54.4 --
08/06/2019 02:00 10.29 55.8 0.00 55.4 --
08/06/2019 01:00 10.29 55.8 0.00 56.4 --
08/06/2019 00:00 10.29 55.8 0.00 57.9 0.00
08/05/2019 23:00 10.29 55.8 0.00 59.5 --
08/05/2019 22:00 10.29 55.8 0.00 62.5 --
08/05/2019 21:00 10.29 55.8 0.00 66.0 --
08/05/2019 20:00 10.29 55.8 0.00 69.3 --
08/05/2019 19:00 -- -- -- -- --
08/05/2019 18:00 -- -- -- -- --
08/05/2019 17:00 -- -- -- -- --
08/05/2019 16:00 -- -- -- -- --
08/05/2019 15:00 -- -- -- -- --
08/05/2019 14:00 -- -- -- -- --
08/05/2019 13:00 -- -- -- -- --
08/05/2019 12:00 -- -- -- -- --
08/05/2019 11:00 -- -- -- -- --
08/05/2019 10:00 -- -- -- -- --
08/05/2019 09:00 -- -- -- -- --
08/05/2019 08:00 -- -- -- -- --
08/05/2019 07:00 -- -- -- -- --
08/05/2019 06:00 -- -- -- -- --
08/05/2019 05:00 -- -- -- -- --
08/05/2019 04:00 -- -- -- -- --
08/05/2019 03:00 -- -- -- -- --
08/05/2019 02:00 -- -- -- -- --
08/05/2019 01:00 -- -- -- -- --
08/05/2019 00:00 -- -- -- -- --